DateTimeUTC,F1_A11,F1_S11,BsB_S11,BsG_S11,BsR_S11,BbsB_S11,BbsG_S11,BbsR_S11,BaB_A11,BaG_A11,BaR_A11,Tu_S11,T_S11,Uu_S11,U_S11,P_S11,T1_A11
2021-10-04T06:00:00Z,00000200,21000000,,,,,,,0000.58,0000.39,0000.47,16.4,23.6,,00.0,0667.1,30.9
2021-10-04T06:01:00Z,00000200,21000000,,,,,,,0000.17,0000.71,0000.02,16.4,23.6,,00.0,0667.1,30.9
2021-10-04T06:02:00Z,00000200,21000000,,,,,,,0000.21,-000.07,0000.66,16.3,23.6,,00.0,0667.1,30.9
2021-10-04T06:03:00Z,00000200,61000000,,,,,,,0003.16,0002.83,0001.68,16.4,23.6,,00.0,0667.1,30.9
2021-10-04T06:04:00Z,00000200,41000000,0000.95,0000.04,-000.03,-000.08,0000.39,-000.16,0002.66,0002.64,0002.20,16.7,23.5,,00.0,0668.0,30.9
2021-10-04T06:05:00Z,00000200,01000000,0003.56,0001.89,0001.01,0000.80,0000.58,0000.40,0024.77,0022.29,0018.01,16.8,23.5,,00.0,0668.1,30.9
2021-10-04T06:06:00Z,00000200,01000000,0015.85,0011.27,0006.76,0004.23,0002.54,0001.95,0193.61,0179.81,0144.99,16.9,23.5,,00.0,0668.1,30.9
2021-10-04T06:07:00Z,00000200,01000000,0001.01,0000.62,0000.34,0000.01,0000.04,0000.24,0015.06,0014.66,0012.42,16.9,23.5,,00.0,0668.1,30.9
2021-10-04T06:08:00Z,00000200,01000000,0000.02,0000.27,0000.16,0000.38,0000.10,-000.05,0001.09,0000.70,0000.68,17.0,23.5,,00.0,0668.1,31.0
2021-10-04T06:09:00Z,00000200,01000000,0000.61,0000.06,-000.07,0000.13,-000.00,-000.36,0000.83,0001.28,0000.51,16.9,23.5,,00.0,0668.1,30.9
2021-10-04T06:10:00Z,00000200,01000000,-000.05,0000.12,0000.25,-000.44,0000.21,-000.13,0000.65,0000.13,0000.17,16.9,23.5,,00.0,0668.1,30.9
2021-10-04T06:11:00Z,00000200,01000000,0000.58,0000.22,-000.13,-000.12,-000.03,-000.03,0000.10,0000.34,0000.48,16.8,23.5,,00.0,0668.1,30.9
2021-10-04T06:12:00Z,00000200,01000000,0000.67,0000.01,0000.05,0000.15,-000.14,0000.08,0000.62,0000.79,0000.39,16.8,23.4,,00.0,0668.1,30.9
2021-10-04T06:13:00Z,00000200,01000000,0000.77,0000.06,0000.05,0000.71,0000.19,0000.01,0001.09,0000.28,0000.44,16.7,23.4,,00.0,0668.1,30.9
2021-10-04T06:14:00Z,00000200,01000000,0000.91,0000.28,0000.23,0000.13,0000.29,-000.22,0003.64,0003.36,0002.55,16.7,23.4,,00.0,0668.1,30.9
2021-10-04T06:15:00Z,00000200,01000000,0005.75,0003.81,0001.77,0000.81,0001.02,0000.47,0062.31,0058.07,0046.80,16.7,23.3,,00.0,0668.1,30.9
2021-10-04T06:16:00Z,00000200,01000000,0003.21,0001.59,0001.49,0000.66,0000.51,0000.44,0036.26,0033.48,0026.97,16.7,23.3,,00.0,0668.1,30.9
2021-10-04T06:17:00Z,00000200,01000000,0000.98,0000.22,-000.10,0000.24,-000.12,-000.29,0002.04,0001.82,0001.60,16.7,23.4,,00.0,0668.1,30.9
2021-10-04T06:18:00Z,00000200,01000000,0001.08,0000.16,-000.36,0000.15,0000.07,0000.15,0000.83,0000.76,0000.29,16.8,23.4,,00.0,0668.1,30.9
2021-10-04T06:19:00Z,00000200,01000000,0003.65,0002.45,0001.05,0000.72,0000.80,0000.44,0034.49,0032.33,0025.72,16.8,23.4,,00.0,0668.1,30.9
2021-10-04T06:20:00Z,00000200,01000000,0008.27,0005.40,0003.76,0001.74,0001.40,0001.14,0088.55,0081.39,0065.97,16.9,23.4,,00.0,0668.1,30.9
2021-10-04T06:21:00Z,00000200,01000000,0014.57,0010.97,0006.82,0002.87,0002.39,0001.90,0172.86,0160.82,0130.32,17.0,23.5,,00.0,0668.1,30.9
2021-10-04T06:22:00Z,00000200,01000000,0018.41,0013.66,0009.15,0004.41,0003.48,0002.29,0230.25,0212.97,0172.41,17.0,23.5,,00.0,0668.1,30.9
2021-10-04T06:23:00Z,00000200,01000000,0014.99,0010.66,0006.67,0002.98,0002.91,0001.61,0194.24,0181.06,0146.47,17.1,23.5,,00.0,0668.1,31.0
2021-10-04T06:24:00Z,00000200,01000000,0002.29,0001.51,0001.56,0000.69,0000.50,-000.01,0035.43,0033.27,0027.21,17.0,23.5,,00.0,0668.1,30.9
2021-10-04T06:25:00Z,00000200,01000000,0000.53,0000.46,0000.06,0000.24,0000.02,0000.23,0003.07,0002.73,0002.47,17.0,23.5,,00.0,0668.1,30.9
2021-10-04T06:26:00Z,00000200,01000000,0000.77,0000.36,0000.24,-000.38,-000.01,-000.09,0001.39,0001.53,0000.96,16.9,23.5,,00.0,0668.1,30.9
2021-10-04T06:27:00Z,00000200,01000000,0000.50,0000.31,0000.20,0000.23,-000.13,-000.25,0001.09,0000.88,0000.87,16.9,23.4,,00.0,0668.1,30.9
2021-10-04T06:28:00Z,00000200,01000000,0000.48,0000.05,-000.06,-000.14,0000.23,0000.27,0001.01,0000.78,0001.02,16.8,23.4,,00.0,0668.1,30.9
2021-10-04T06:29:00Z,00000200,01000000,0000.66,0000.15,0000.20,0000.11,0000.09,0000.44,0001.48,0001.07,0000.63,16.7,23.4,,00.0,0668.1,30.9
2021-10-04T06:30:00Z,00000200,01000000,0001.17,0000.43,0000.07,0000.05,-000.18,-000.05,0006.82,0006.99,0005.27,16.7,23.4,,00.0,0668.1,30.9
2021-10-04T06:31:00Z,00000200,01000000,0002.66,0001.72,0001.30,0000.64,0000.25,0000.30,0024.89,0022.50,0018.52,16.7,23.4,,00.0,0668.1,30.9
2021-10-04T06:32:00Z,00000200,01000000,0006.29,0004.15,0002.94,0001.65,0001.07,0000.67,0069.97,0065.44,0052.62,16.8,23.4,,00.0,0668.1,30.9
2021-10-04T06:33:00Z,00000200,01000000,0002.78,0002.58,0001.32,0000.59,0000.77,0000.54,0039.06,0036.28,0029.92,16.8,23.4,,00.0,0668.1,30.9
2021-10-04T06:34:00Z,00000200,01000000,0003.21,0002.24,0000.81,0000.04,0000.51,0000.27,0026.59,0025.35,0020.09,16.9,23.4,,00.0,0668.1,30.9
2021-10-04T06:35:00Z,00000200,01000000,0002.14,0001.05,0000.60,-000.16,0000.33,0000.13,0016.96,0015.24,0012.75,17.0,23.5,,00.0,0668.1,30.9
2021-10-04T06:36:00Z,00000200,01000000,0002.29,0001.15,0000.68,-000.20,0000.07,0000.38,0018.85,0017.92,0014.53,17.0,23.5,,00.0,0668.1,30.9
2021-10-04T06:37:00Z,00000200,01000000,0000.28,0000.55,0000.16,0000.48,0000.25,-000.04,0002.69,0002.43,0001.76,17.1,23.5,,00.0,0668.1,30.9
2021-10-04T06:38:00Z,00000200,01000000,0000.45,0000.18,-000.08,0000.27,0000.19,0000.00,0000.57,0000.44,0000.53,17.0,23.5,,00.0,0668.1,30.9
2021-10-04T06:39:00Z,00000200,01000000,0000.55,-000.19,-000.24,-000.43,0000.06,0000.20,0000.84,0000.66,0000.63,17.0,23.5,,00.0,0668.1,30.9
2021-10-04T06:40:00Z,00000200,01000000,0001.13,-000.11,0000.35,-000.25,-000.01,0000.27,0000.23,0000.34,0000.65,16.9,23.5,,00.0,0668.0,30.9
2021-10-04T06:41:00Z,00000200,01000000,-000.17,-000.02,0000.05,0000.32,0000.17,0000.26,0000.63,0000.39,0000.07,16.9,23.4,,00.0,0668.0,30.9
2021-10-04T06:42:00Z,00000200,01000000,0000.07,-000.04,0000.04,0000.28,0000.24,0000.09,0000.51,0000.34,-000.06,16.8,23.4,,00.0,0668.1,30.9
2021-10-04T06:43:00Z,00000200,01000000,0000.50,0000.21,0000.19,0000.08,-000.20,0000.03,0000.58,0000.50,0000.36,16.8,23.4,,00.0,0668.0,30.9
2021-10-04T06:44:00Z,00000200,01000000,-000.08,-000.10,-000.04,-000.04,-000.02,0000.01,0000.47,0000.38,0000.50,16.7,23.4,,00.0,0668.1,30.9
2021-10-04T06:45:00Z,00000200,01000000,0000.13,0000.22,0000.17,0000.61,0000.16,0000.24,0000.26,0000.73,0000.49,16.7,23.3,,00.0,0668.1,30.9
2021-10-04T06:46:00Z,00000200,01000000,0000.44,0000.09,-000.09,0000.53,0000.29,-000.18,0000.40,0000.07,0000.23,16.7,23.3,,00.0,0668.1,30.9
2021-10-04T06:47:00Z,00000200,01000000,0000.52,-000.03,0000.05,0000.12,0000.12,0000.24,0000.54,0000.37,0000.09,16.7,23.3,,00.0,0668.1,30.9
2021-10-04T06:48:00Z,00000200,01000000,0000.52,0000.37,0000.21,-000.45,0000.02,0000.35,0000.18,0000.39,0000.63,16.8,23.4,,00.0,0668.1,30.9
2021-10-04T06:49:00Z,00000200,01000000,0000.63,0000.02,0000.17,0000.51,0000.07,0000.04,0001.10,0001.41,0000.76,16.9,23.4,,00.0,0668.1,30.9
2021-10-04T06:50:00Z,00000200,01000000,0013.88,0009.39,0005.93,0002.85,0001.95,0002.15,0136.43,0125.56,0101.63,16.9,23.4,,00.0,0668.1,30.9
2021-10-04T06:51:00Z,00000200,01000000,0007.38,0005.02,0003.02,0001.17,0000.86,0000.63,0085.58,0080.60,0066.43,17.0,23.5,,00.0,0668.1,30.9
2021-10-04T06:52:00Z,00000200,01000000,0001.88,0001.24,0001.00,0000.38,0000.38,0000.58,0017.73,0016.66,0012.91,17.0,23.5,,00.0,0668.1,30.9
2021-10-04T06:53:00Z,00000200,01000000,0008.67,0005.97,0003.45,0002.08,0001.39,0000.75,0086.46,0079.70,0064.89,17.0,23.5,,00.0,0668.1,30.9
2021-10-04T06:54:00Z,00000200,01000000,0012.10,0008.95,0005.16,0002.68,0001.90,0001.23,0137.76,0127.78,0103.23,16.9,23.4,,00.0,0668.1,30.9
2021-10-04T06:55:00Z,00000200,01000000,0015.01,0010.27,0006.21,0002.47,0002.59,0001.72,0163.26,0151.16,0122.49,16.8,23.4,,00.0,0668.0,30.9
2021-10-04T06:56:00Z,00000200,01000000,0017.96,0012.87,0008.33,0003.91,0003.03,0002.62,0219.40,0203.89,0165.30,16.8,23.4,,00.0,0668.0,30.9
2021-10-04T06:57:00Z,00000200,41000000,,,,,,,0056.09,0052.99,0043.48,16.8,23.4,,00.0,0668.2,30.9
2021-10-04T06:58:00Z,00000200,61000000,,,,,,,0001.71,0001.75,0001.58,16.4,23.5,,00.0,0667.0,30.9
2021-10-04T06:59:00Z,00000200,21000000,,,,,,,0001.45,0001.29,0001.06,16.4,23.6,,00.0,0667.0,30.9
